Regional Weather Roundup
Issued by NWS

Home | Current Version | Previous Version | Text Only | Print | Product List | Glossary Off
Versions: 1 2 3 4 5 6 7 8 9 10 11 12 13 14 15 16 17 18 19 20 21 22 23 24 25 26 27 28 29 30 31 32 33 34 35 36 37 38 39 40 41 42 43 44 45 46 47 48 49 50

000
ASUS43 KDTX 261001
RWRMI
MICHIGAN HOURLY REGIONAL WEATHER ROUNDUP
NATIONAL WEATHER SERVICE DETROIT/PONTIAC MI
600 AM EDT WED JUL 26 2017

NOTE: "FAIR" INDICATES FEW OR NO CLOUDS BELOW 12,000 FEET WITH NO
SIGNIFICANT WEATHER AND/OR OBSTRUCTION TO VISIBILITY.

MIZ047>049-052>055-059>063-066>070-074>076-081>083-261100-
SOUTHEAST LOWER MICHIGAN

CITY           SKY/WX    TMP DP  RH WIND       PRES   REMARKS
ADRIAN         MOCLDY    57  56  96 CALM      30.17F
ALMA           CLOUDY    61  56  83 SW5       30.14F
ANN ARBOR      CLOUDY    52  52 100 CALM      30.16F FOG
BAD AXE        CLOUDY    63  59  87 S7        30.16F
CARO           CLOUDY    61  58  87 S5        30.15S
DETROIT CITY   PTCLDY    64  60  87 CALM      30.17F
DETROIT        CLOUDY    61  58  90 CALM      30.17F
FLINT          PTCLDY    62  59  90 SW3       30.17S
GROSSE ILE     PTCLDY    69  60  72 S10       30.16S
HILLSDALE      PTCLDY    57  55  94 S3        30.16F
HOWELL         CLOUDY    61  59  93 CALM      30.17S

CITY           SKY/WX    TMP DP  RH WIND       PRES   REMARKS
JACKSON        PTCLDY    62  58  86 S6        30.16F
LAMBERTVILLE   MOCLDY    56  56  97 CALM      30.16F
LANSING        CLOUDY    62  56  80 S10       30.15F
LAPEER         FAIR      62  60  93 SE3       30.16F
MASON          PTCLDY    60  58  95 SE5       30.15F
MONROE         MOCLDY    57  56  96 CALM      30.16S
PONTIAC        MOCLDY    62  60  93 S3        30.16S
PORT HOPE        N/A     65  59  81 VRB6      30.14S
PORT HURON     PTCLDY    55  54  94 CALM      30.19R FOG
TRI CITIES     CLOUDY    64  61  90 S9        30.13F
MIDLAND        FAIR      64  56  76 S3        30.12F
TROY           MOCLDY    63  60  88 CALM      30.18S
SAGINAW HB     CLOUDY    61  59  94 S6        30.13F
$$
MIZ043>046-050>051-056>058-064>065-071>073-077>080-261100-
SOUTHWEST LOWER MICHIGAN

CITY           SKY/WX    TMP DP  RH WIND       PRES   REMARKS
BATTLE CREEK   CLEAR     62  58  86 S8        30.15F
BENTON HARBOR  CLOUDY    64  58  80 SE8       30.11F
BIG RAPIDS     CLOUDY    61  56  83 CALM      30.13R
COLDWATER      CLEAR     61  60  97 S6        30.16F
FREMONT        FAIR      62  58  88 CALM      30.13R
HOLLAND        CLOUDY    63  58  83 S6        30.13S
GRAND RAPIDS   CLOUDY    65  59  81 S8        30.13S
IONIA          FAIR      64  57  78 S5        30.14R
KALAMAZOO      CLEAR     63  56  78 S8        30.15F
LUDINGTON      CLOUDY    66  62  85 S9        30.07F
MARSHALL       CLOUDY    61  60  96 S5        30.15F
MOUNT PLEASANT CLOUDY    65  55  69 CALM      30.13R
MUSKEGON       CLOUDY    68  59  73 S8        30.13R
SOUTH HAVEN    PTCLDY    64  61  88 S5        30.11F
$$
MIZ016>042-261100-
NORTHERN LOWER MICHIGAN

CITY           SKY/WX    TMP DP  RH WIND       PRES   REMARKS
ALPENA         CLOUDY    64  60  87 SE3       30.09F
BEAVER ISLAND  HVY RAIN  64  63  96 S15G26    30.03R
BELLAIRE       HVY RAIN  65  59  82 S8        30.07S
CADILLAC       CLOUDY    66  55  66 S9        30.10S
CHARLEVOIX     LGT RAIN  65  61  87 S10G16    30.06F
FRANKFORT      CLOUDY    72  58  63 S14G21    30.05R
GAYLORD        LGT RAIN  63  56  78 SW9       30.10F
GRAYLING       CLOUDY    62  55  79 S6        30.12S
HARBOR SPRINGS CLOUDY    66  59  77 SW9       30.04F
HOUGHTON LAKE  CLOUDY    66  55  67 S7        30.12F
MANISTEE       MOCLDY    66  59  78 S9        30.06F
OSCODA         CLOUDY    67  58  72 SW5       30.13S
PELLSTON       CLOUDY    64  60  87 S3        30.04F
ROGERS CITY    CLOUDY    65  58  78 S7        30.07F
TRAVERSE CITY  CLOUDY    66  60  81 SE3       30.06R
$$
MIZ007>008-015-261100-
EASTERN UPPER MICHIGAN

CITY           SKY/WX    TMP DP  RH WIND       PRES   REMARKS
KINROSS        CLOUDY    64  61  90 S8        30.01F
MACKINAC ISLAN CLOUDY    66  61  85 S8        30.03F
NEWBERRY       HVY RAIN  63  62  96 S15G22    29.97F
S. S. MARIE    CLOUDY    65  61  87 SE6       30.00F
MUNISING         N/A     68  64  87 S15G28    29.92F
$$
MIZ004>006-011>014-085-261100-
CENTRAL UPPER MICHIGAN

CITY           SKY/WX    TMP DP  RH WIND       PRES   REMARKS
MANISTIQUE     CLOUDY    64  61  88 S13G20    29.98F
ESCANABA       CLOUDY    67  64  90 SW8       29.97S
MENOMINEE      LGT RAIN  68  63  84 SW9       29.99S
SAWYER-GWINN   CLOUDY    63  62  95 S13       29.96R
$$
MIZ001>003-009>011-084-261100-
WESTERN UPPER MICHIGAN

CITY           SKY/WX    TMP DP  RH WIND       PRES   REMARKS
IRON MOUNTAIN  CLOUDY    69  63  81 SW8       29.94F
HOUGHTON       CLOUDY    69  65  86 W12       29.87F
COPPER HARBOR    N/A     71  65  81 VRB3      29.84R
IRONWOOD       CLOUDY    71  68  90 W8        29.94R
$$

ABBREVIATIONS USED IN REMARKS
   TC - TEMPERATURE IN CELSIUS
  WCI - WIND CHILL INDEX
   HX - HEAT INDEX
  VSB - VISIBILITY





USA.gov is the U.S. government's official web portal to all federal, state and local government web resources and services.